Location: Goettingen
(51.5300°N, 9.9433°E)
Time: 17:55:33
(UTC+02:00)

ISS - Pass Details

Date: 24 May 2020
Orbit: 417 x 420 km, 51.6° (Epoch: 26 May)

Event Time Altitude Azimuth Distance (km) Brightness Sun altitude
Rises 01:31:17 0° 281° (WNW) 2,369 0.2 -17.6°
Reaches altitude 10° 01:33:50 10° 262° (W) 1,502 -1.1 -17.6°
Enters shadow 01:33:54 10° 261° (W) 1,483 -1.1 -17.6°
